#timestamp,LO_Frequency,Hit,StdDev 
1460124015.8,286046996.7,N
1460124035.6,286046996.9,N
1460124055.5,286046999.5,N
1460124075.3,286046997.7,N
1460124095.1,286047001.1,N
1460124115.9,286047002.7,N
1460124135.7,286046998.5,N
1460124155.5,286046998.5,N
1460124175.4,286046998.2,N
1460124195.2,286047001.9,N
1460124215.0,286047004.4,N
1460124215.9,286047004.4,N
1460124235.8,286047000.2,N
1460124255.6,286046999.0,N
1460124275.4,286047000.0,N
1460124295.3,286046998.7,N
1460124315.1,286047002.8,N
1460124316.0,286047002.8,N
1460124335.8,286047000.8,N
1460124355.6,286046998.6,N
1460124375.5,286047000.5,N
1460124395.3,286046999.9,N
1460124415.1,286047002.6,N
1460124435.9,286047000.1,N
1460124455.7,286046999.2,N
1460124475.5,286046997.4,N
1460124495.4,286046992.4,Y
1460124515.2,286046992.6,P
1460124535.0,286046991.8,N
1460124535.9,286046991.8,N
1460124555.8,286046994.7,N
1460124575.6,286046994.0,N
1460124595.4,286046996.2,N
1460124615.3,286046998.9,N
1460124635.1,286047001.0,N
1460124636.0,286047001.0,N
1460124655.8,286047002.4,N
1460124675.7,286047001.9,N
1460124695.5,286047004.4,N
1460124715.3,286047000.7,N
1460124735.2,286047001.5,N
1460124755.9,286047003.9,N
1460124775.7,286047003.8,N
1460124795.5,286047003.3,N
1460124815.4,286047004.1,N
1460124835.2,286047000.9,N
1460124855.0,286046997.0,N
1460124855.9,286046997.0,N
1460124875.8,286046998.9,N
1460124895.6,286047000.6,N
1460124915.4,286047001.9,N
1460124935.3,286047002.7,N
1460124955.1,286047001.8,N
1460124956.0,286047001.8,N
1460124975.8,286047001.9,N
1460124995.7,286047000.7,N
1460125015.5,286046998.1,N
1460125035.3,286046997.0,N
1460125055.2,286046999.1,N
1460125075.9,286046999.1,N
1460125095.7,286046995.0,N
1460125115.6,286046996.0,N
1460125135.4,286046993.6,N
1460125155.2,286046997.9,N
1460125175.0,286046995.3,N
1460125176.0,286046995.3,N
1460125195.8,286046996.8,N
1460125215.6,286047001.0,N
1460125235.4,286047001.8,N
1460125255.3,286047005.5,N
1460125275.1,286047008.7,N
1460125295.8,286047008.7,N
1460125315.7,286047010.2,N
1460125335.5,286047012.0,N
1460125355.3,286047015.8,Y
1460125375.2,286047013.3,P
1460125395.9,286047014.1,N
1460125415.7,286047016.4,N
1460125435.6,286047015.9,N
1460125455.4,286047018.8,Y
1460125475.2,286047010.6,P
1460125495.1,286047009.1,P
1460125496.0,286047009.1,P
1460125515.8,286047006.2,Y
1460125535.6,286046993.3,P
1460125555.5,286046999.2,N
1460125575.3,286046996.7,N
1460125595.1,286046999.9,N
1460125615.9,286047002.2,N
1460125635.7,286047001.4,N
1460125655.5,286047005.6,N
1460125675.4,286047006.6,N
1460125695.2,286047009.1,N
1460125715.0,286047004.5,N
1460125715.9,286047004.5,N
1460125735.8,286047004.1,N
1460125755.6,286047000.0,N
1460125775.4,286046996.7,N
1460125795.2,286046998.0,N
1460125815.1,286046999.3,N
1460125816.0,286046999.3,N
1460125835.8,286047001.1,N
1460125855.6,286047002.7,N
1460125875.5,286047001.6,N
1460125895.3,286047001.2,N
1460125915.1,286046997.5,N
1460125935.9,286046995.8,N
1460125955.7,286046996.2,N
1460125975.5,286046995.0,N
1460125995.4,286046993.8,N
1460126015.2,286046995.2,N
1460126035.0,286046998.5,N
1460126035.9,286046998.5,N
1460126055.8,286047000.7,N
1460126075.6,286046998.6,N
1460126095.4,286047000.3,N
1460126115.3,286047004.3,N
1460126135.1,286047002.8,N
1460126136.0,286047002.8,N
1460126155.8,286047000.5,N
1460126175.6,286047000.2,N
1460126195.5,286046998.2,N
1460126215.3,286046993.5,N
1460126235.1,286046994.4,N
1460126255.9,286046993.8,N
1460126275.7,286046992.7,N
1460126295.5,286046993.2,N
1460126315.4,286046991.4,N
1460126335.2,286046988.8,Y
1460126355.0,286046987.4,P
1460126355.9,286046987.4,N
1460126375.8,286046987.8,N
1460126395.6,286046985.6,Y
1460126415.4,286046996.4,P
1460126435.3,286046993.6,N
1460126455.1,286046992.6,N
1460126456.0,286046992.6,Y
1460126475.8,286046995.4,P
1460126495.7,286046992.6,P
1460126515.5,286046989.9,P
1460126535.3,286046987.1,Y
1460126555.2,286046998.0,P
1460126575.9,286046997.8,N
1460126595.7,286046994.9,N
1460126615.6,286047001.1,N
1460126635.4,286047000.7,N
1460126655.2,286046999.1,N
1460126675.1,286046996.5,N
1460126676.0,286046996.5,N
1460126695.8,286046995.3,N
1460126715.6,286046995.1,N
1460126735.5,286046993.9,N
1460126755.3,286046988.6,Y
1460126775.1,286046991.2,P
1460126795.9,286046990.9,P
1460126815.7,286046989.3,P
1460126835.5,286046987.2,Y
1460126855.4,286046995.2,P
1460126875.2,286046995.3,P
1460126895.0,286046995.7,N
1460126895.9,286046995.7,N
1460126915.8,286046995.2,Y
1460126935.6,286047000.8,P
1460126955.4,286047000.9,N
1460126975.3,286047001.2,N
1460126995.1,286046998.1,N
1460126996.0,286046998.1,N
1460127015.8,286046998.4,N
1460127035.6,286046997.4,N
1460127055.5,286046997.0,N
1460127075.3,286046998.3,N
1460127095.1,286046998.9,N
1460127115.9,286046996.8,N
1460127135.7,286046996.9,N
1460127155.5,286046999.5,N
1460127175.4,286046997.7,N
1460127195.2,286046995.0,N
1460127215.0,286046997.6,N
1460127215.9,286046997.6,N
1460127235.8,286046996.6,N
1460127255.6,286046996.9,N
1460127275.4,286046995.0,N
1460127295.3,286046995.4,N
1460127315.1,286046996.5,N
1460127316.0,286046996.5,N
1460127335.8,286046996.9,N
1460127355.7,286046993.9,Y
1460127375.5,286046998.0,P
1460127395.3,286046996.2,P
1460127415.1,286046993.9,P
1460127435.9,286046996.8,N
1460127455.7,286046998.0,N
1460127475.6,286046993.3,Y
1460127495.4,286046999.5,P
1460127515.2,286046998.8,N
1460127535.0,286046994.9,P
1460127535.9,286046994.9,N
1460127555.8,286046996.7,N
1460127575.6,286046997.5,N
1460127595.4,286046998.0,N
